Total_Precipitation_Accumulation
2.00 2.11 2.14 2.12 2.19 2.20 2.30 2.50 2.74 2.66 2.39 2.18 2.05 1.97 2.02 2.14 2.44 2.26 2.18 2.15 1.94 1.81 1.78 1.80 1.85 1.88 2.05 2.30 2.48 2.53 2.46 2.43 2.44 2.49 2.55 2.68 2.88 3.03
1.79 1.85 1.84 1.84 2.06 2.15 2.20 2.34 2.59 2.75 2.68 2.30 2.06 1.87 1.96 1.95 2.30 2.21 2.26 2.37 2.07 1.82 1.73 1.80 1.84 1.82 1.88 1.95 2.07 2.18 2.24 2.25 2.21 2.24 2.35 2.43 2.54 2.74
1.61 1.63 1.65 1.76 1.89 1.92 2.02 2.14 2.38 2.66 2.78 2.49 2.18 1.99 2.08 2.16 2.21 2.17 2.10 2.04 1.94 1.93 1.77 1.74 1.91 2.08 1.97 1.82 1.79 1.80 1.90 2.00 2.07 2.09 2.17 2.29 2.35 2.44
1.43 1.48 1.38 1.46 1.66 1.77 1.89 1.96 2.11 2.31 2.49 2.44 2.20 2.12 2.07 2.12 2.24 2.23 2.00 1.81 1.73 1.87 1.77 1.69 1.83 2.18 2.24 1.98 1.84 1.73 1.68 1.68 1.74 1.84 1.93 2.03 2.15 2.30
1.28 1.33 1.34 1.48 1.58 1.71 1.83 1.87 2.00 2.05 2.27 2.28 2.11 2.10 2.10 2.10 2.25 2.15 1.92 1.91 1.55 1.58 1.63 1.66 1.74 2.28 2.65 2.39 2.08 1.90 1.70 1.56 1.48 1.58 1.70 1.82 1.86 1.94
1.20 1.23 1.29 1.41 1.54 1.74 1.79 1.89 2.03 2.14 2.24 2.30 2.22 2.19 2.20 2.24 2.35 2.34 2.14 1.95 1.68 1.38 1.51 1.61 1.78 2.20 2.77 2.92 2.50 2.20 1.97 1.76 1.57 1.48 1.51 1.53 1.55 1.56
1.26 1.23 1.18 1.23 1.39 1.54 1.60 1.84 2.10 2.25 2.26 2.32 2.28 2.25 2.23 2.34 2.24 2.14 2.12 1.99 1.74 1.53 1.58 1.50 1.73 2.35 2.96 3.29 3.07 2.46 2.02 1.81 1.68 1.54 1.45 1.39 1.35 1.34
1.30 1.28 1.11 1.07 1.11 1.18 1.27 1.41 1.73 2.01 2.16 2.25 2.22 2.17 2.11 2.17 2.17 2.09 2.13 2.15 1.95 1.58 1.62 1.67 1.94 2.77 3.31 3.53 3.46 2.64 1.96 1.73 1.65 1.59 1.52 1.43 1.32 1.25
1.28 1.31 1.11 0.96 1.08 1.15 1.16 1.16 1.30 1.55 1.85 2.11 2.16 1.99 2.06 2.15 2.25 2.22 2.14 2.15 2.05 1.71 1.71 1.82 2.10 2.74 3.17 3.56 3.52 2.76 2.14 1.79 1.69 1.63 1.55 1.46 1.38 1.28
1.12 1.16 1.22 1.21 1.10 1.12 1.19 1.28 1.43 1.54 1.62 1.67 1.88 1.95 1.95 1.97 1.99 2.03 2.10 2.13 1.99 1.71 1.76 2.03 2.14 2.54 2.91 3.42 3.37 2.70 2.19 1.87 1.70 1.62 1.53 1.41 1.33 1.29
0.97 0.94 0.99 1.03 0.98 1.04 1.22 1.47 1.65 1.82 1.64 1.61 1.69 1.86 1.86 1.72 1.63 1.80 2.09 2.23 2.05 1.73 1.66 1.93 2.09 2.29 2.65 2.99 2.86 2.52 2.15 1.91 1.71 1.55 1.47 1.40 1.33 1.32
1.00 0.95 0.97 0.97 0.95 1.06 1.26 1.61 1.82 1.90 1.71 1.60 1.71 1.86 1.81 1.73 1.71 1.83 2.09 2.15 2.04 1.94 1.67 1.83 1.95 2.10 2.49 2.59 2.38 2.12 2.03 2.01 1.83 1.65 1.52 1.40 1.32 1.25
0.95 1.00 1.02 1.02 0.97 1.07 1.29 1.56 1.78 1.82 1.74 1.71 1.76 1.82 1.87 1.90 1.81 1.80 1.90 1.95 1.98 1.92 1.57 1.78 2.00 2.10 2.33 2.42 2.30 2.12 1.91 1.88 1.84 1.88 1.83 1.59 1.40 1.31
1.00 1.01 1.03 1.04 1.01 1.13 1.26 1.56 1.84 1.98 1.84 1.70 1.64 1.63 1.62 1.66 1.65 1.57 1.57 1.59 1.64 1.71 1.64 1.78 2.08 2.23 2.21 2.13 2.22 2.12 2.03 1.97 1.87 1.90 1.98 1.88 1.67 1.60
0.86 1.00 0.99 0.94 1.07 1.33 1.51 1.69 1.91 2.07 1.95 1.71 1.59 1.49 1.41 1.40 1.37 1.41 1.41 1.40 1.34 1.30 1.24 1.46 1.83 2.06 2.13 2.07 2.08 2.05 2.19 2.35 2.18 2.10 2.01 1.88 1.76 1.64
0.70 0.90 1.04 1.10 1.25 1.54 1.78 1.91 1.99 1.97 1.80 1.61 1.50 1.43 1.36 1.33 1.34 1.32 1.36 1.36 1.39 1.35 1.23 1.29 1.56 1.85 1.99 1.92 1.98 2.04 2.15 2.56 2.53 2.29 2.14 2.06 1.90 1.76
0.66 0.87 1.06 1.17 1.38 1.60 1.74 1.76 1.76 1.72 1.66 1.53 1.42 1.36 1.33 1.32 1.31 1.30 1.33 1.30 1.34 1.33 1.34 1.36 1.47 1.61 1.68 1.76 1.90 1.94 2.09 2.30 2.34 2.18 2.13 2.18 2.11 1.91
0.68 0.95 1.15 1.24 1.42 1.56 1.66 1.62 1.55 1.51 1.47 1.42 1.38 1.31 1.27 1.26 1.29 1.26 1.23 1.23 1.27 1.24 1.21 1.25 1.28 1.35 1.46 1.58 1.72 1.81 1.84 2.00 2.06 2.00 1.88 1.98 2.13 2.03
0.71 0.98 1.22 1.34 1.44 1.49 1.52 1.51 1.47 1.41 1.33 1.30 1.28 1.25 1.22 1.21 1.21 1.18 1.14 1.14 1.15 1.12 1.07 1.10 1.13 1.19 1.34 1.60 1.71 1.72 1.71 1.76 1.85 1.83 1.77 1.79 1.98 2.05
0.81 1.00 1.20 1.28 1.35 1.40 1.40 1.38 1.37 1.32 1.27 1.27 1.31 1.27 1.19 1.13 1.07 1.06 1.07 1.05 1.02 0.99 0.99 1.01 1.01 1.13 1.29 1.49 1.77 1.81 1.62 1.50 1.55 1.63 1.60 1.64 1.80 1.83
0.83 0.94 1.04 1.12 1.20 1.26 1.26 1.23 1.22 1.19 1.14 1.15 1.18 1.19 1.14 1.06 0.99 0.94 0.93 0.86 0.85 0.87 0.95 1.04 1.04 0.96 0.98 1.15 1.40 1.57 1.55 1.54 1.48 1.46 1.44 1.55 1.57 1.46
0.81 0.87 0.89 0.91 0.97 1.04 1.02 0.98 1.01 1.00 0.98 1.00 1.01 1.04 1.07 1.03 0.95 0.89 0.86 0.85 0.87 0.86 0.86 0.88 0.84 0.84 0.94 1.14 1.32 1.42 1.40 1.31 1.30 1.25 1.21 1.21 1.21 1.33
0.70 0.73 0.77 0.78 0.76 0.77 0.81 0.82 0.86 0.92 0.96 0.96 0.95 0.95 0.93 0.90 0.84 0.81 0.82 0.80 0.77 0.75 0.80 0.86 0.87 0.89 0.95 1.04 1.18 1.23 1.17 1.12 1.12 1.13 1.18 1.20 1.12 1.18